Wetbulb
55.29 55.10 55.40 55.31 55.47 55.68 55.92 55.93 55.86 56.19 56.68 56.98 57.03 56.77 56.63 56.63 57.01 57.38 57.70 57.85 58.27 58.31 57.55 57.51 58.00 58.95 57.32 51.15 50.31 57.21 60.66 60.20 57.68 55.94 53.41 52.03 49.67 49.56 47.30 48.62 49.27 48.44 48.08 48.89 48.64 48.26 47.36
54.70 54.72 55.09 54.88 55.05 55.23 55.41 55.52 55.52 55.77 56.23 56.58 56.51 56.21 55.96 56.19 56.54 56.99 57.35 57.48 58.11 58.08 57.14 57.41 59.00 56.84 53.08 45.90 55.84 57.40 56.34 56.34 55.99 54.55 52.96 53.01 50.55 51.14 48.95 47.79 47.78 49.25 48.97 48.02 48.28 47.08 46.46
54.43 54.25 54.70 54.65 54.85 54.93 55.07 54.98 55.11 55.51 55.89 56.03 55.96 55.62 55.45 55.75 56.25 56.72 56.89 57.10 57.79 57.77 56.75 57.20 58.79 53.92 51.96 49.15 56.11 56.91 56.31 54.69 55.77 54.60 51.30 53.20 52.75 50.34 50.08 47.19 49.63 48.37 44.64 46.38 46.65 47.05 45.24
54.44 53.71 54.04 54.35 54.50 54.56 54.72 54.43 54.68 55.09 55.44 55.55 55.34 55.01 55.05 55.50 56.11 56.54 56.35 56.49 57.13 56.60 56.65 57.16 58.02 53.82 48.24 55.25 57.43 54.95 55.86 53.84 55.60 55.67 53.96 54.12 53.78 50.76 49.47 49.15 46.47 44.23 44.22 40.95 46.17 46.59 45.90
54.86 53.92 53.32 53.76 54.02 54.23 54.44 54.22 54.17 54.67 54.96 54.91 54.73 54.50 54.74 55.37 55.79 56.06 55.70 55.71 55.56 56.05 56.36 56.83 54.18 52.80 47.30 55.97 51.41 54.08 54.69 51.66 52.72 54.05 53.54 52.52 51.82 48.73 47.56 44.21 41.88 42.65 39.36 40.79 42.36 46.80 45.26
55.87 54.54 53.16 53.13 53.57 53.82 53.89 53.98 53.82 54.25 54.45 54.39 54.14 53.86 54.29 55.07 55.41 56.01 54.72 54.59 55.27 52.79 54.16 52.33 51.36 49.77 49.45 46.89 51.38 52.44 54.56 53.47 50.32 51.19 50.38 49.24 47.72 45.53 44.58 42.37 37.90 39.87 39.16 40.27 40.62 44.42 45.14
56.75 55.76 54.00 52.84 52.95 53.53 53.43 53.46 53.57 53.67 53.99 53.85 53.65 53.37 53.96 54.65 55.22 55.20 53.53 52.98 49.95 50.05 51.34 45.94 45.91 45.67 47.51 51.29 52.81 50.86 52.59 51.46 50.29 48.22 44.05 46.34 43.40 41.07 42.81 43.18 41.67 40.89 40.08 39.79 42.21 43.48 43.54
56.59 56.65 55.46 53.56 52.87 53.07 53.06 52.90 53.08 53.12 53.33 53.31 52.99 52.89 53.71 54.37 54.07 54.01 54.48 50.21 48.53 51.05 44.94 48.74 47.81 48.26 49.49 50.46 46.00 49.07 52.89 47.56 46.46 43.34 44.29 43.09 40.99 42.94 43.60 43.01 41.80 41.44 40.24 40.51 42.77 42.20 41.19
57.30 56.93 56.43 54.72 53.46 52.74 52.62 52.44 52.50 52.58 52.69 52.58 52.35 52.57 53.57 53.25 53.37 53.61 51.83 49.52 53.10 52.66 46.12 45.31 47.72 47.01 47.59 49.19 45.21 46.29 49.09 47.02 45.07 42.84 42.72 41.58 42.78 43.58 42.24 41.27 40.13 40.91 39.70 39.99 38.86 39.61 40.57
58.52 57.39 56.89 55.89 54.28 52.81 52.14 52.24 52.11 52.07 52.12 51.85 51.86 52.45 53.18 52.18 50.57 50.28 48.97 51.51 53.65 52.18 42.67 41.17 44.43 46.11 47.20 48.59 44.72 48.39 47.19 46.54 44.50 41.70 41.87 41.85 42.67 41.50 41.02 40.22 40.97 37.26 39.62 38.49 37.43 36.15 33.48
59.10 58.23 57.78 56.56 54.90 53.29 52.03 51.65 51.86 51.64 51.62 51.40 51.49 52.24 51.59 50.34 49.44 48.06 48.78 52.84 53.16 49.04 36.83 42.29 44.01 49.79 46.76 44.75 44.98 45.31 46.74 45.91 41.44 41.84 41.11 39.38 39.16 38.89 38.57 39.42 40.33 37.86 39.74 38.25 38.17 36.39 36.19
59.34 58.67 58.37 57.23 55.40 53.88 52.31 51.33 51.42 51.16 51.27 50.98 51.24 51.66 50.26 49.64 51.46 48.92 52.44 52.73 51.28 42.97 36.56 39.37 43.33 41.79 41.09 42.15 42.43 43.87 44.00 45.46 43.85 40.53 40.75 40.01 42.00 41.00 40.53 40.10 40.07 40.36 38.03 37.82 37.39 35.79 28.45
59.10 59.14 58.46 57.58 55.94 54.43 52.77 51.22 50.98 50.75 50.65 50.38 50.58 50.09 49.44 48.83 47.38 50.93 51.56 49.04 41.89 37.99 39.15 38.13 39.57 41.04 40.27 39.74 39.72 40.33 39.78 39.51 38.24 35.54 36.93 37.22 37.83 40.14 40.79 37.69 39.73 38.35 35.71 31.00 29.48 27.99 28.45
59.26 58.97 58.65 57.75 56.62 54.98 53.32 51.41 50.70 50.36 50.04 50.03 49.35 48.78 47.72 48.75 52.22 51.19 48.92 43.60 36.28 38.84 38.05 39.88 39.87 39.41 37.89 38.60 38.40 38.30 38.25 37.50 37.32 36.74 36.03 34.98 33.29 36.76 38.45 38.00 35.73 36.55 36.27 31.77 25.21 28.07 31.19
59.20 58.80 58.47 57.75 56.90 55.46 53.93 51.95 50.76 49.70 49.42 49.66 47.63 51.13 49.49 48.39 49.95 49.23 45.16 38.91 40.28 39.86 40.37 39.43 38.66 36.86 37.25 37.34 37.21 37.15 37.47 37.47 37.57 37.36 34.76 34.41 33.35 36.12 35.61 36.27 36.15 35.43 32.43 36.40 31.26 32.83 29.44
59.11 58.69 58.43 57.76 57.12 55.98 54.37 52.44 50.80 49.36 48.89 49.04 47.61 47.38 47.33 47.35 49.71 47.51 42.25 39.31 38.97 40.57 40.61 39.84 36.83 38.33 36.25 36.65 35.67 36.44 37.36 36.26 34.93 35.66 36.71 35.22 30.97 33.34 34.03 35.41 35.66 34.56 36.47 30.09 31.07 22.79 22.63
59.03 58.73 58.35 57.83 57.06 56.04 54.71 52.81 50.99 48.98 48.45 47.86 46.47 42.28 45.92 47.95 47.83 44.10 39.30 40.24 38.41 40.43 40.86 38.95 38.18 36.92 37.39 36.31 36.78 36.30 36.11 33.98 35.06 33.88 35.47 34.87 32.12 30.34 32.67 31.94 32.95 32.04 31.22 31.34 30.22 29.80 22.82
58.69 58.78 58.45 57.84 56.79 55.81 54.50 52.77 50.88 48.55 47.95 44.11 45.70 40.25 46.23 47.95 41.59 41.92 40.38 37.94 38.42 38.50 40.15 39.80 38.96 37.75 36.51 36.42 35.54 35.35 34.72 33.80 35.34 35.76 32.54 34.84 33.08 29.43 31.68 30.19 30.94 30.77 30.55 30.99 26.43 25.88 28.68
55.53 56.90 58.53 57.80 56.48 55.40 54.31 52.55 50.48 48.20 48.02 43.42 41.14 42.84 46.89 46.53 40.13 39.70 37.47 37.20 38.41 37.13 38.01 37.60 37.28 37.65 37.46 36.19 33.29 35.77 34.75 32.99 34.14 34.25 33.25 34.25 31.36 27.60 28.14 27.55 29.19 27.54 30.33 29.68 28.96 26.71 24.23
53.85 54.61 55.35 57.52 56.27 55.15 54.21 52.66 50.75 48.90 47.90 43.26 40.32 38.48 41.60 43.13 40.57 39.04 37.74 37.09 35.35 36.06 36.59 37.00 36.74 37.03 35.61 34.68 36.33 33.84 33.62 31.84 32.43 33.66 32.63 33.42 31.28 29.64 26.51 29.99 28.95 27.31 27.37 27.79 27.05 23.02 24.76
51.58 52.24 53.10 56.09 56.56 55.37 54.12 52.77 51.09 48.78 48.46 43.45 40.27 38.15 40.71 38.31 38.18 38.47 38.18 36.56 34.51 33.34 35.79 36.32 34.01 35.19 34.96 32.80 32.90 32.20 34.50 31.11 31.43 32.64 32.62 31.95 27.43 30.46 30.94 30.67 28.84 26.32 26.25 27.85 24.33 25.17 21.68
50.67 51.06 51.49 52.80 56.50 55.51 54.03 52.81 50.86 47.95 47.56 41.15 37.76 38.95 38.22 38.57 37.44 37.27 35.40 35.20 34.29 33.33 34.22 33.02 32.71 35.38 35.66 33.22 34.24 31.30 33.28 32.54 31.91 30.89 31.06 31.06 27.69 26.75 23.23 28.30 26.22 22.35 25.15 25.68 25.35 25.10 24.71
50.47 50.74 51.10 52.14 53.53 55.46 53.83 52.53 50.42 47.68 46.33 37.52 38.59 38.13 38.26 36.48 36.64 36.13 35.91 34.82 33.28 35.04 32.58 33.19 34.47 33.68 32.27 33.75 32.75 32.78 33.34 32.91 33.61 31.32 29.94 28.62 27.18 23.52 21.69 22.52 22.37 19.92 21.94 22.37 24.47 21.57 20.53
50.36 50.28 50.81 51.22 52.82 54.14 53.79 52.40 50.15 47.98 46.04 40.66 40.21 38.53 36.78 33.57 33.75 35.81 34.31 34.19 33.01 34.22 31.65 31.31 32.55 31.95 30.81 34.18 33.52 32.77 31.51 30.10 30.34 29.14 30.97 27.04 25.80 24.44 20.29 20.97 13.50 16.55 20.71 19.92 19.78 19.72 18.19
50.88 50.45 50.29 50.75 52.03 52.12 54.04 52.34 50.14 47.82 45.76 42.01 38.74 37.60 36.49 33.45 31.71 31.95 31.67 32.42 33.03 32.21 29.76 29.95 30.00 32.35 34.17 31.68 28.20 25.74 24.87 24.43 24.32 25.41 26.27 27.16 26.11 21.44 17.47 18.69 22.81 15.69 17.14 17.92 16.77 17.54 17.64
51.14 50.62 50.56 50.94 51.21 51.55 53.64 51.70 50.29 48.39 46.99 40.84 37.80 37.04 35.96 31.96 28.08 30.86 32.14 33.27 30.47 30.76 28.69 28.00 31.07 34.14 32.03 29.34 26.92 23.55 23.62 24.94 20.69 20.31 25.01 24.88 25.36 21.97 19.01 13.54 14.07 17.20 19.07 21.52 18.64 13.82 17.22
50.83 50.43 50.15 50.81 51.02 51.57 52.69 50.92 49.62 48.71 45.52 41.37 36.83 37.40 35.71 30.04 27.69 29.14 28.56 28.09 33.25 32.43 30.62 28.30 27.89 27.68 30.21 26.63 24.21 24.45 23.83 24.27 20.81 19.56 17.52 19.00 20.17 17.03 18.15 15.88 19.29 19.31 20.49 21.24 11.49 13.33 18.52
49.96 49.97 50.53 51.24 51.42 52.16 51.62 50.15 49.38 48.69 45.02 39.82 34.08 36.54 36.14 29.15 25.94 28.35 28.93 28.77 29.69 31.65 27.86 28.27 26.84 25.84 25.16 23.61 25.02 24.82 22.52 23.39 21.24 23.56 20.65 19.86 17.92 16.82 18.29 14.91 11.60 21.85 19.08 15.43 17.51 19.41 19.87
49.28 52.00 52.37 52.39 52.15 52.10 50.35 49.90 49.85 47.19 43.58 39.64 32.43 34.87 34.64 29.15 25.30 30.30 29.49 30.66 29.14 29.80 30.34 29.47 27.66 26.96 29.67 27.14 25.46 26.54 21.36 22.10 22.46 19.08 21.42 17.96 22.76 21.59 21.10 19.25 20.88 23.03 21.06 20.71 21.03 19.67 19.68
MSLP
1022.64 1022.76 1022.73 1022.53 1022.30 1022.04 1021.75 1021.49 1021.22 1020.92 1020.65 1020.29 1019.99 1019.83 1019.65 1019.39 1019.05 1018.71 1018.50 1018.25 1018.00 1017.81 1017.66 1017.41 1017.15 1016.92 1016.73 1015.91 1016.83 1016.92 1016.83 1016.33 1015.83 1015.53 1015.08 1014.59 1013.94 1013.70 1013.31 1013.52 1013.78 1013.79 1014.70 1015.36 1016.01 1016.41 1017.18
1022.90 1022.89 1022.82 1022.67 1022.47 1022.11 1021.83 1021.57 1021.32 1021.06 1020.75 1020.35 1020.10 1019.96 1019.67 1019.28 1019.01 1018.68 1018.47 1018.19 1017.93 1017.77 1017.59 1017.37 1017.13 1016.95 1016.34 1016.33 1017.43 1017.05 1016.85 1016.32 1016.06 1015.54 1015.27 1014.83 1014.57 1014.36 1014.05 1014.22 1014.26 1014.65 1014.96 1015.73 1016.54 1017.22 1018.10
1023.00 1022.88 1022.86 1022.73 1022.46 1022.19 1021.95 1021.68 1021.39 1021.18 1020.88 1020.49 1020.11 1019.92 1019.63 1019.32 1019.02 1018.76 1018.45 1018.11 1017.85 1017.73 1017.56 1017.36 1017.09 1016.48 1016.02 1017.46 1017.33 1017.12 1016.72 1016.56 1016.35 1016.01 1015.56 1015.69 1015.38 1014.78 1014.55 1014.65 1015.21 1015.20 1015.33 1015.88 1016.39 1017.16 1018.12
1023.07 1022.99 1022.81 1022.61 1022.51 1022.38 1022.09 1021.75 1021.48 1021.24 1021.00 1020.58 1020.19 1019.93 1019.66 1019.40 1019.04 1018.74 1018.39 1018.02 1017.74 1017.61 1017.44 1017.27 1017.03 1016.25 1016.81 1017.59 1017.35 1017.07 1016.56 1016.39 1016.39 1016.31 1016.19 1016.11 1015.64 1015.19 1014.98 1015.38 1015.24 1014.93 1015.11 1015.15 1015.93 1017.02 1018.28
1023.04 1022.96 1022.79 1022.61 1022.54 1022.52 1022.20 1021.99 1021.61 1021.28 1021.01 1020.63 1020.23 1019.95 1019.64 1019.36 1019.05 1018.65 1018.40 1018.02 1017.68 1017.39 1017.20 1017.01 1016.72 1016.12 1017.08 1017.58 1017.31 1017.31 1017.03 1016.66 1016.48 1016.37 1016.35 1016.17 1015.71 1015.26 1015.39 1014.74 1014.43 1014.47 1013.87 1014.35 1015.70 1016.65 1017.69
1022.79 1022.86 1022.87 1022.76 1022.62 1022.52 1022.31 1022.06 1021.71 1021.42 1021.10 1020.73 1020.32 1019.92 1019.58 1019.25 1018.99 1018.63 1018.23 1017.98 1017.55 1017.31 1016.84 1016.56 1016.50 1016.62 1017.46 1017.65 1017.70 1017.58 1017.18 1017.02 1016.53 1016.31 1016.17 1015.84 1015.44 1014.93 1014.71 1014.39 1013.45 1013.21 1013.73 1014.15 1014.66 1016.12 1017.12
1022.61 1022.71 1022.75 1022.73 1022.61 1022.54 1022.37 1022.08 1021.68 1021.42 1021.21 1020.87 1020.48 1019.99 1019.54 1019.18 1018.78 1018.43 1017.92 1017.79 1017.63 1017.06 1016.89 1017.45 1017.63 1017.50 1017.75 1017.97 1017.90 1017.55 1017.49 1016.95 1016.48 1016.11 1015.47 1015.76 1015.22 1014.40 1014.02 1014.30 1014.55 1014.22 1014.06 1013.97 1014.51 1016.06 1016.77
1022.22 1022.44 1022.59 1022.66 1022.58 1022.42 1022.28 1022.06 1021.75 1021.37 1021.18 1020.94 1020.54 1020.11 1019.71 1019.22 1018.74 1018.27 1017.73 1017.59 1018.56 1018.74 1018.18 1018.13 1017.96 1017.87 1018.06 1018.13 1017.61 1017.53 1017.54 1017.05 1016.40 1015.76 1015.90 1015.78 1015.02 1015.28 1015.57 1015.52 1015.30 1014.93 1014.56 1014.43 1015.03 1016.37 1017.04
1021.81 1022.04 1022.31 1022.39 1022.41 1022.40 1022.28 1022.09 1021.83 1021.48 1021.12 1020.87 1020.51 1020.08 1019.58 1019.15 1018.60 1018.27 1018.19 1019.03 1019.23 1018.88 1017.78 1018.26 1018.15 1017.92 1018.15 1018.21 1017.92 1017.97 1017.81 1017.31 1016.60 1016.22 1015.92 1015.51 1015.89 1016.35 1016.27 1016.17 1015.97 1015.62 1015.44 1015.31 1016.03 1016.76 1017.04
1021.52 1021.71 1021.87 1022.01 1022.17 1022.22 1022.17 1022.09 1021.85 1021.54 1021.16 1020.82 1020.48 1020.00 1019.48 1019.02 1019.02 1018.74 1019.04 1019.59 1019.39 1019.08 1017.93 1018.21 1017.95 1018.17 1018.14 1018.05 1018.10 1018.50 1018.45 1018.23 1017.24 1016.80 1016.71 1016.43 1017.06 1017.03 1017.01 1016.76 1016.73 1016.38 1016.65 1016.75 1016.94 1017.26 1016.77
1021.23 1021.34 1021.47 1021.69 1021.85 1022.02 1022.00 1021.95 1021.78 1021.49 1021.16 1020.78 1020.43 1020.02 1019.58 1019.14 1018.87 1019.07 1019.95 1019.83 1019.60 1018.95 1018.23 1018.49 1018.14 1018.36 1018.21 1018.12 1018.18 1018.38 1018.80 1018.05 1017.49 1017.26 1017.51 1017.26 1017.50 1017.69 1017.60 1017.44 1017.65 1017.39 1017.69 1017.50 1017.38 1017.22 1017.06
1020.75 1021.01 1021.19 1021.39 1021.54 1021.66 1021.68 1021.67 1021.51 1021.35 1021.07 1020.75 1020.43 1020.08 1019.61 1019.10 1018.97 1020.11 1019.99 1019.82 1019.39 1018.63 1017.72 1017.89 1017.92 1017.95 1017.95 1018.03 1018.15 1018.22 1018.27 1018.21 1018.23 1017.84 1017.64 1017.65 1018.37 1018.31 1018.13 1018.50 1018.47 1018.55 1018.31 1017.89 1017.77 1017.54 1016.92
1020.29 1020.52 1020.82 1021.06 1021.23 1021.37 1021.51 1021.49 1021.39 1021.25 1021.11 1020.75 1020.43 1020.19 1019.71 1019.52 1019.62 1020.07 1019.92 1019.36 1018.63 1017.62 1017.81 1017.54 1017.53 1017.75 1017.75 1017.66 1017.97 1018.19 1018.19 1018.07 1018.10 1018.04 1017.49 1017.96 1018.21 1018.95 1019.34 1019.14 1019.25 1019.24 1018.67 1017.64 1017.10 1017.10 1016.06
1019.65 1019.98 1020.32 1020.66 1020.92 1021.11 1021.18 1021.20 1021.14 1021.11 1021.04 1020.84 1020.46 1020.01 1020.23 1020.19 1020.12 1020.04 1019.51 1018.51 1017.64 1016.90 1016.86 1017.39 1017.42 1017.70 1017.60 1017.75 1017.94 1018.10 1018.16 1018.07 1018.70 1018.69 1018.14 1018.00 1018.55 1019.31 1019.84 1019.56 1019.39 1019.16 1018.80 1018.02 1016.69 1015.95 1015.89
1018.82 1019.21 1019.68 1020.15 1020.52 1020.81 1020.93 1021.02 1021.01 1020.93 1020.90 1020.80 1020.51 1019.74 1019.62 1019.96 1020.21 1020.05 1019.02 1017.70 1016.56 1016.42 1016.76 1017.08 1017.53 1017.37 1017.34 1017.81 1018.11 1018.06 1018.11 1018.37 1019.16 1019.61 1019.30 1018.82 1019.20 1020.18 1020.64 1020.76 1020.68 1019.93 1019.62 1019.20 1018.31 1017.26 1016.74
1017.94 1018.49 1018.89 1019.38 1019.94 1020.37 1020.58 1020.73 1020.87 1020.90 1020.86 1020.73 1020.07 1019.64 1019.55 1020.06 1020.03 1019.50 1018.40 1017.20 1017.07 1017.43 1017.53 1017.50 1017.01 1017.04 1016.72 1017.33 1017.92 1018.03 1017.91 1019.56 1020.27 1020.90 1020.90 1020.22 1020.15 1020.79 1021.41 1021.47 1021.25 1020.87 1020.72 1019.98 1019.60 1018.65 1017.87
1017.43 1017.75 1018.26 1018.85 1019.29 1019.85 1020.16 1020.40 1020.67 1020.80 1020.82 1020.74 1020.41 1019.67 1019.74 1019.86 1019.85 1018.93 1017.72 1017.32 1017.79 1018.44 1018.52 1018.27 1017.54 1017.27 1017.11 1017.30 1017.77 1018.09 1018.64 1020.72 1021.15 1021.55 1021.62 1021.27 1021.33 1021.47 1021.64 1021.49 1020.97 1021.49 1020.99 1021.01 1020.88 1020.41 1020.38
1017.13 1017.50 1017.74 1018.05 1018.70 1019.25 1019.68 1020.04 1020.39 1020.64 1020.88 1020.96 1020.14 1019.61 1019.85 1019.81 1019.15 1018.21 1017.55 1018.01 1018.74 1018.87 1019.20 1019.07 1018.92 1018.37 1018.03 1018.09 1018.14 1018.65 1019.47 1020.98 1021.96 1021.94 1021.71 1021.52 1021.14 1020.69 1020.76 1021.93 1022.35 1022.02 1021.45 1021.37 1021.16 1020.85 1021.11
1017.69 1016.94 1017.42 1017.61 1018.08 1018.62 1019.20 1019.61 1020.18 1020.53 1020.91 1020.78 1019.88 1019.19 1019.65 1019.45 1018.27 1017.72 1018.40 1018.69 1019.00 1019.33 1019.41 1019.62 1019.38 1019.35 1019.26 1018.77 1018.90 1019.16 1020.48 1022.31 1022.78 1022.70 1022.52 1022.32 1021.80 1021.12 1021.14 1022.55 1022.80 1022.67 1022.21 1022.28 1022.24 1022.56 1022.04
1017.41 1017.10 1017.01 1017.04 1017.48 1017.97 1018.72 1019.35 1019.69 1020.38 1020.76 1020.95 1019.94 1019.22 1019.14 1018.73 1018.62 1017.93 1018.13 1018.57 1019.48 1020.18 1020.03 1020.11 1020.01 1019.98 1019.79 1019.54 1019.72 1019.91 1021.15 1022.88 1023.47 1023.34 1023.66 1023.29 1022.31 1021.42 1021.05 1021.00 1022.26 1022.39 1022.69 1023.03 1023.19 1022.87 1022.26
1017.23 1017.39 1016.76 1016.57 1017.05 1017.53 1018.01 1018.63 1019.57 1020.22 1020.63 1020.81 1019.61 1018.62 1018.35 1018.05 1017.87 1017.78 1018.25 1018.94 1019.57 1020.26 1020.66 1020.68 1020.61 1020.33 1019.99 1019.91 1020.34 1020.56 1021.39 1023.24 1023.92 1024.10 1023.99 1023.75 1022.79 1022.09 1021.82 1022.01 1022.55 1023.07 1023.32 1023.39 1023.64 1023.69 1024.14
1016.93 1017.01 1016.86 1016.68 1016.85 1016.93 1017.56 1018.19 1018.97 1019.75 1020.72 1020.78 1019.52 1018.59 1018.89 1018.62 1018.28 1018.12 1018.78 1018.87 1019.37 1020.08 1020.58 1020.84 1020.79 1020.52 1020.61 1020.55 1020.60 1021.15 1021.80 1022.62 1022.90 1024.18 1024.16 1024.13 1023.31 1023.25 1023.01 1022.74 1023.35 1023.80 1023.87 1023.87 1024.42 1024.92 1025.47
1016.58 1016.62 1016.48 1016.65 1017.03 1016.65 1016.96 1017.54 1018.45 1019.40 1020.19 1020.37 1020.02 1019.53 1018.97 1019.02 1018.62 1018.64 1018.41 1018.89 1019.43 1020.06 1021.12 1021.38 1021.24 1021.45 1021.66 1021.76 1022.20 1022.71 1023.01 1023.24 1023.30 1023.57 1024.06 1024.25 1024.14 1024.22 1023.24 1024.24 1024.78 1024.82 1024.78 1025.30 1025.56 1026.93 1027.93
1016.38 1016.12 1015.79 1016.65 1016.80 1016.67 1016.57 1017.19 1018.00 1018.64 1019.34 1019.86 1019.80 1019.72 1019.75 1019.37 1019.23 1018.97 1019.04 1019.47 1020.04 1020.57 1021.16 1022.12 1022.24 1022.29 1023.28 1023.26 1023.30 1023.56 1023.83 1024.04 1024.17 1024.52 1024.50 1024.46 1024.75 1025.10 1024.66 1025.46 1025.70 1026.57 1027.01 1027.58 1027.92 1028.92 1030.10
1016.24 1015.71 1015.70 1016.31 1016.42 1016.17 1016.22 1016.79 1017.82 1018.29 1019.16 1020.07 1020.32 1020.51 1020.26 1020.30 1019.94 1020.04 1020.09 1020.40 1020.82 1021.44 1022.31 1022.92 1023.59 1023.51 1023.55 1023.72 1023.61 1023.51 1023.94 1024.51 1024.76 1025.42 1025.47 1025.61 1025.37 1025.48 1025.76 1025.60 1025.51 1027.38 1028.23 1028.73 1029.30 1030.33 1031.50
1015.84 1015.44 1015.39 1015.74 1015.88 1015.75 1015.68 1016.60 1017.25 1018.12 1019.15 1019.74 1020.67 1021.05 1020.51 1020.84 1021.30 1020.71 1020.91 1020.95 1021.09 1021.86 1022.93 1023.78 1024.49 1024.44 1024.40 1023.83 1023.55 1023.26 1023.13 1023.38 1024.61 1025.83 1026.37 1026.36 1026.34 1026.25 1026.45 1026.89 1026.67 1027.84 1029.49 1030.27 1030.89 1031.23 1032.15
1015.50 1015.06 1014.85 1015.18 1015.46 1015.26 1015.48 1016.23 1017.31 1018.05 1018.89 1019.69 1020.50 1021.00 1020.92 1021.83 1022.53 1022.27 1022.24 1022.04 1021.63 1021.89 1022.45 1023.78 1024.48 1024.92 1025.10 1024.17 1023.57 1023.10 1023.33 1023.87 1024.08 1024.76 1025.84 1026.37 1026.65 1026.49 1026.79 1027.36 1027.31 1028.95 1030.06 1030.80 1031.52 1032.27 1032.62
1014.91 1014.41 1014.27 1014.43 1014.87 1014.70 1015.35 1016.40 1017.27 1018.14 1018.85 1019.27 1020.81 1020.85 1020.50 1022.21 1023.47 1023.40 1023.22 1023.13 1023.08 1022.69 1022.86 1024.04 1024.52 1024.82 1024.94 1024.50 1023.83 1023.36 1023.64 1023.82 1024.28 1024.55 1025.29 1025.52 1026.23 1026.73 1027.18 1028.02 1028.42 1029.60 1030.84 1031.46 1031.99 1032.45 1033.00
1014.39 1013.86 1013.40 1013.18 1013.95 1014.65 1015.37 1016.71 1017.33 1018.24 1018.85 1019.60 1020.78 1020.94 1020.78 1021.90 1024.27 1024.28 1024.45 1024.32 1024.54 1024.42 1023.92 1023.95 1023.83 1023.59 1023.71 1024.01 1024.29 1024.18 1024.39 1024.75 1024.42 1024.84 1026.15 1026.34 1026.23 1026.45 1027.06 1027.77 1029.01 1029.81 1030.62 1031.67 1032.16 1032.68 1033.39
Wind_Speed
4 5 6 7 7 8 8 9 10 10 11 11 12 12 12 12 12 12 12 11 10 8 7 7 7 8 5 3 5 8 11 9 5 4 5 4 3 1 1 3 2 8 8 7 7 10 11
2 3 5 6 7 8 9 9 10 10 11 11 12 12 12 13 12 12 11 10 9 8 7 7 8 8 4 2 4 8 8 6 8 5 4 5 3 2 4 3 4 4 8 9 7 7 11
2 3 4 6 7 8 8 9 10 11 11 11 11 12 12 12 12 12 12 10 8 7 6 7 8 4 7 6 3 7 5 5 6 6 2 5 4 3 1 5 3 6 6 6 7 9 5
2 2 3 6 7 8 8 9 9 10 11 12 12 12 12 12 13 12 12 9 4 4 5 6 7 4 5 2 5 6 5 2 4 4 4 3 3 4 3 5 4 5 3 6 8 10 5
4 3 3 4 6 7 8 9 9 9 10 11 12 13 13 13 13 13 11 6 3 3 3 5 4 5 5 1 1 6 6 4 2 2 2 1 1 2 5 5 6 7 6 10 7 11 7
6 5 3 4 5 6 7 8 9 10 11 12 12 13 14 14 14 11 10 5 3 4 4 3 1 4 2 3 4 5 3 4 2 1 3 3 3 5 5 7 5 4 8 5 8 11 11
8 7 5 4 4 6 7 8 9 10 12 12 13 13 14 14 14 10 5 3 5 4 9 6 4 2 2 2 3 4 4 3 2 4 4 2 6 6 3 3 6 6 7 9 2 4 8
11 9 8 6 5 5 7 8 9 9 10 12 13 14 14 14 13 8 6 2 4 5 6 4 3 3 1 2 2 6 8 4 3 3 3 5 6 3 1 1 4 6 8 9 2 3 6
12 11 10 8 6 6 6 7 8 9 10 11 13 13 14 15 8 3 7 4 3 4 0 3 2 2 2 4 3 6 8 3 2 2 2 5 6 3 2 2 5 6 8 8 7 1 8
13 13 11 9 8 7 6 8 9 9 10 11 12 13 14 15 0 1 4 2 2 3 4 3 2 3 2 0 2 3 5 4 1 3 3 4 4 2 3 5 4 8 6 3 6 6 6
14 14 12 11 9 8 7 7 8 9 10 11 13 13 12 9 2 1 3 1 2 3 1 3 3 3 1 3 2 3 0 3 2 1 2 2 1 2 5 3 2 3 2 3 6 10 11
15 15 13 12 11 9 8 7 7 9 10 11 13 12 10 2 3 3 1 1 3 3 6 4 2 3 3 2 1 1 2 2 1 2 3 1 1 3 2 1 2 2 4 8 6 7 8
16 15 14 13 12 11 9 7 6 8 9 9 10 7 5 2 2 0 1 3 3 4 2 4 2 2 2 2 2 2 1 4 3 1 5 4 4 2 2 4 3 4 5 3 6 5 7
16 15 15 14 12 12 10 8 6 6 8 9 6 3 4 4 2 2 3 4 4 2 2 2 2 2 4 2 2 2 3 5 3 4 4 4 4 5 3 2 3 8 5 5 8 9 13
19 17 15 14 13 13 11 9 7 5 6 8 5 1 2 2 2 2 4 3 3 1 3 5 3 4 5 3 3 3 4 2 4 2 5 3 2 3 3 2 3 5 6 4 7 13 13
21 19 16 16 15 14 12 10 8 5 5 5 3 2 2 3 3 3 4 3 2 2 3 1 4 3 4 5 4 4 5 3 2 2 3 5 6 2 3 2 2 4 5 4 4 7 11
17 18 19 18 17 14 13 11 8 5 4 3 3 4 3 1 2 4 4 2 3 2 1 3 2 3 4 2 5 3 2 3 1 3 1 2 1 4 2 6 3 4 4 5 4 4 6
9 14 17 18 18 16 15 12 8 5 2 2 2 4 2 2 4 2 4 1 2 3 2 2 3 3 3 2 4 4 3 2 2 4 4 3 3 7 4 3 2 3 4 4 7 10 11
1 7 13 15 17 17 16 14 10 4 4 2 3 1 2 3 5 6 2 3 1 5 4 4 4 3 2 4 5 5 5 3 3 4 2 4 5 5 6 2 2 5 6 8 4 3 16
1 4 2 13 17 18 17 17 14 11 9 2 2 3 3 3 0 4 3 3 4 0 3 2 2 3 4 6 5 2 6 3 2 3 1 2 4 10 12 15 3 7 9 9 10 8 15
2 3 1 2 17 19 19 17 15 10 8 2 4 3 2 5 7 7 4 3 4 4 2 4 3 10 6 5 4 6 5 4 3 4 3 4 6 9 12 13 10 11 14 14 17 18 16
3 5 7 5 12 19 19 19 16 15 6 3 2 4 3 3 4 8 4 7 8 4 7 5 6 3 9 7 4 1 5 5 4 7 6 4 4 2 6 12 8 12 16 17 18 18 21
1 4 7 8 10 17 20 19 20 20 13 2 1 1 1 4 6 6 5 5 7 8 2 3 3 5 7 3 3 4 4 4 1 3 9 5 4 3 7 2 8 15 10 8 11 2 5
2 2 7 9 9 9 19 20 22 22 9 1 1 1 3 3 6 6 5 5 6 7 2 3 2 3 5 8 9 6 5 2 2 1 4 5 6 3 5 4 8 5 4 5 4 2 2
6 3 4 9 9 13 19 20 22 23 16 2 1 2 3 3 2 4 8 5 7 6 3 4 2 4 10 5 3 4 4 3 3 0 3 2 6 4 5 6 8 5 3 3 2 4 3
8 6 7 9 9 11 18 21 21 20 19 4 2 1 2 4 4 3 6 8 5 6 5 4 5 3 3 4 3 4 5 1 4 4 1 3 3 5 3 5 7 5 6 4 4 6 6
9 9 10 11 10 8 17 20 20 21 19 5 3 1 4 3 1 2 3 3 3 4 3 5 7 5 2 4 4 4 5 1 5 5 7 5 5 11 9 6 3 7 8 5 3 3 8
11 14 13 14 13 9 19 19 19 20 18 5 3 1 3 4 2 3 3 1 2 3 5 8 6 2 4 5 4 4 5 5 3 1 5 8 7 6 5 6 9 11 7 4 4 3 1
14 13 10 8 11 18 20 16 16 18 15 6 3 1 5 7 4 3 6 7 3 3 1 7 2 4 5 4 1 2 3 2 3 4 2 6 4 1 5 0 4 12 4 5 2 2 1
Wind_Direction
45 18 9 13 14 13 12 9 6 6 3 4 6 1 356 354 355 352 349 342 335 332 329 325 321 323 279 182 54 357 334 338 320 330 8 346 308 306 194 95 91 102 114 92 89 99 91
23 16 8 5 6 12 10 7 3 2 360 5 3 356 354 351 350 344 338 332 321 322 322 325 329 322 259 215 338 349 342 353 15 356 25 4 26 346 94 65 342 106 131 124 133 114 130
358 2 0 358 3 6 5 6 2 356 357 359 359 354 349 347 342 335 329 323 313 312 316 327 332 302 60 62 351 351 3 13 7 12 41 35 2 309 145 126 118 139 134 146 170 161 131
293 322 353 358 355 353 356 2 359 355 352 354 355 350 345 342 336 330 326 315 293 288 308 315 312 271 68 38 338 14 357 39 38 44 58 18 9 96 2 121 147 191 223 206 151 179 133
255 295 330 344 346 341 351 350 353 351 349 352 351 345 342 339 334 324 320 290 244 266 277 284 255 287 96 194 342 349 3 1 351 57 58 318 303 92 160 209 190 196 254 216 156 196 153
230 254 280 313 329 334 342 345 350 347 346 347 346 345 341 336 328 315 317 274 311 225 226 247 161 182 112 16 348 325 354 336 350 171 181 213 208 209 205 215 243 260 229 214 239 182 208
230 245 258 267 296 318 332 343 348 346 344 343 342 343 339 334 328 325 285 218 205 158 44 47 26 54 61 12 271 359 358 291 235 236 228 148 235 214 208 280 325 296 276 264 146 138 235
227 242 249 254 273 303 327 337 341 344 344 342 343 340 334 330 323 314 277 21 31 11 102 60 74 94 45 330 264 44 340 276 240 215 196 200 237 59 114 207 250 248 255 260 125 161 248
213 230 238 247 267 288 309 321 328 335 341 342 341 339 336 331 315 301 71 70 346 320 247 86 42 26 13 317 34 13 348 324 328 216 233 290 56 116 229 198 253 250 274 295 278 310 241
222 225 231 241 251 269 296 312 319 329 337 341 339 340 340 336 308 41 52 33 326 318 216 117 150 103 188 306 161 18 16 346 208 321 322 321 74 233 247 264 282 281 22 289 272 263 272
226 223 228 233 238 250 267 292 315 328 335 340 341 339 339 346 91 59 61 316 297 240 319 115 114 26 356 290 43 116 21 219 302 17 265 81 208 216 248 295 266 9 341 259 261 260 281
225 223 221 222 230 240 257 282 310 326 337 343 342 336 319 239 83 61 334 266 246 224 250 157 154 167 207 195 153 319 190 147 36 236 230 315 136 254 333 118 251 97 251 233 253 258 255
223 224 219 217 223 229 239 256 293 316 329 337 343 343 355 311 76 333 233 212 239 240 61 154 173 202 280 178 182 304 246 194 256 235 214 171 201 114 263 240 184 233 268 284 221 201 249
222 221 217 213 218 226 233 248 272 305 322 329 326 301 47 41 0 281 228 220 246 27 178 92 131 161 241 175 173 197 217 226 211 243 283 236 226 186 137 268 343 204 274 265 288 287 299
221 220 215 211 213 221 226 236 250 284 312 323 304 158 170 62 328 259 244 225 280 148 107 162 157 222 187 194 272 233 225 326 41 270 261 275 191 122 36 354 313 141 218 13 292 273 277
214 209 207 207 211 217 221 227 244 269 301 324 268 232 170 353 310 234 245 257 178 55 115 193 243 216 243 170 222 215 183 64 113 7 344 35 279 24 80 255 199 277 351 246 210 290 285
216 206 204 205 202 210 211 219 229 253 297 325 253 243 90 353 241 225 222 190 137 101 306 247 284 249 251 231 252 247 10 98 22 124 302 315 259 115 206 201 293 178 219 226 303 268 262
215 211 214 207 201 198 203 209 217 231 277 255 264 239 43 271 205 222 228 114 86 146 167 206 285 287 264 187 223 236 240 68 151 179 187 154 268 260 259 91 11 298 286 270 242 257 245
130 140 220 210 199 195 198 194 200 217 223 323 247 91 130 263 234 211 123 150 187 162 185 177 197 250 235 216 236 214 193 143 184 208 203 161 209 276 177 182 184 235 210 249 290 298 248
34 351 46 203 198 196 194 194 184 191 205 218 241 196 146 195 312 302 195 209 183 181 151 194 157 193 198 224 235 214 194 141 173 196 92 204 261 253 267 298 337 233 214 229 225 243 266
343 325 323 277 201 199 190 191 183 182 205 226 215 223 335 176 206 196 201 125 184 201 229 212 197 229 206 235 232 227 194 156 181 169 189 249 253 258 273 284 278 269 266 249 233 248 260
65 347 322 327 223 197 188 186 180 159 170 272 226 188 185 128 142 166 175 196 209 164 169 206 234 193 211 234 258 243 181 201 195 179 200 187 271 291 265 254 273 269 259 252 255 267 267
184 2 346 320 324 203 191 182 177 170 160 200 298 317 288 152 170 194 191 187 195 141 153 6 236 193 215 248 86 72 48 48 359 189 200 199 246 241 271 30 307 270 274 262 242 87 310
239 294 355 317 287 267 196 185 180 177 173 36 137 132 118 227 203 209 167 163 169 183 147 140 189 203 107 118 110 101 86 81 176 147 305 217 214 259 291 310 250 74 87 64 30 78 125
244 281 303 310 292 314 205 183 181 178 168 116 91 101 170 222 164 164 160 143 124 122 117 147 88 39 147 148 195 201 187 219 174 333 206 271 220 254 257 241 295 165 166 147 170 159 144
241 266 277 287 289 306 201 182 179 182 172 107 85 301 180 142 209 9 149 183 162 172 147 106 86 123 147 211 194 235 244 220 183 163 178 182 267 228 170 264 272 78 128 90 80 255 159
262 269 278 271 261 283 183 174 176 178 166 134 121 106 101 124 53 35 163 178 155 175 120 134 155 152 261 188 210 217 235 345 224 204 171 169 206 220 230 254 251 144 139 140 180 89 160
282 286 275 258 238 204 167 171 174 168 157 103 104 265 126 97 57 16 18 128 119 205 171 129 130 181 165 205 222 200 246 186 218 132 190 181 188 196 213 229 248 149 136 229 87 133 241
294 292 277 239 181 157 154 172 162 147 147 124 113 70 63 74 88 72 87 63 35 2 78 179 39 135 150 182 245 218 208 174 239 223 198 220 258 280 227 60 99 173 60 102 95 345 255